START_TIME,STEP,MOV.,E45,t_acc.,ALAR?,t_acc.,A12,t_acc.,A24,t_acc.
1979-07-19 12:00:26.150 ,0,0,12.,4.8,368.,4.8,0.,4.8,0.,4.8
1979-07-19 12:00:30.950 ,0,0,14.,4.8,392.,4.8,0.,4.8,0.,4.8
1979-07-19 12:00:35.750 ,0,0,17.,4.8,344.,4.8,0.,4.8,0.,4.8
1979-07-19 12:00:40.550 ,0,0,16.,4.8,368.,4.8,0.,4.8,0.,4.8
1979-07-19 12:00:45.350 ,0,0,7.,4.8,336.,4.8,0.,4.8,0.,4.8
1979-07-19 12:00:50.150 ,1,0,14.,4.8,344.,4.8,0.,4.8,0.,4.8
1979-07-19 12:00:54.950 ,1,0,10.,4.8,336.,4.8,0.,4.8,0.,4.8
1979-07-19 12:00:59.750 ,1,0,13.,4.8,312.,4.8,0.,4.8,0.,4.8
1979-07-19 12:01:04.550 ,1,0,21.,4.8,312.,4.8,0.,4.8,0.,4.8
1979-07-19 12:01:09.350 ,1,0,17.,4.8,320.,4.8,0.,4.8,0.,4.8
1979-07-19 12:01:14.150 ,1,0,8.,4.8,304.,4.8,0.,4.8,0.,4.8
1979-07-19 12:01:18.950 ,1,0,13.,4.8,320.,4.8,0.,4.8,0.,4.8
1979-07-19 12:01:23.750 ,1,0,11.,4.8,344.,4.8,0.,4.8,0.,4.8
1979-07-19 12:01:28.550 ,1,0,16.,4.8,344.,4.8,0.,4.8,0.,4.8
1979-07-19 12:01:33.350 ,1,0,10.,4.8,352.,4.8,0.,4.8,0.,4.8
1979-07-19 12:01:38.150 ,2,0,8.,4.8,312.,4.8,0.,4.8,0.,4.8
1979-07-19 12:01:42.950 ,2,0,10.,4.8,328.,4.8,0.,4.8,0.,4.8
1979-07-19 12:01:47.750 ,2,0,8.,4.8,344.,4.8,0.,4.8,0.,4.8
1979-07-19 12:01:52.550 ,2,0,13.,4.8,352.,4.8,0.,4.8,0.,4.8
1979-07-19 12:01:57.350 ,2,0,12.,4.8,384.,4.8,0.,4.8,0.,4.8
1979-07-19 12:02:02.150 ,2,0,10.,4.8,344.,4.8,0.,4.8,0.,4.8
1979-07-19 12:02:06.950 ,2,0,14.,4.8,336.,4.8,0.,4.8,0.,4.8
1979-07-19 12:02:11.750 ,2,0,9.,4.8,328.,4.8,0.,4.8,0.,4.8
1979-07-19 12:02:16.550 ,2,0,12.,4.8,328.,4.8,0.,4.8,0.,4.8
1979-07-19 12:02:21.350 ,2,0,10.,4.8,320.,4.8,0.,4.8,0.,4.8
1979-07-19 12:02:26.150 ,3,0,10.,4.8,312.,4.8,0.,4.8,0.,4.8
1979-07-19 12:02:30.950 ,3,0,10.,4.8,288.,4.8,0.,4.8,0.,4.8
1979-07-19 12:02:35.750 ,3,0,5.,4.8,344.,4.8,0.,4.8,0.,4.8
1979-07-19 12:02:40.550 ,3,0,8.,4.8,344.,4.8,0.,4.8,0.,4.8
1979-07-19 12:02:45.350 ,3,0,8.,4.8,328.,4.8,0.,4.8,0.,4.8
1979-07-19 12:02:50.150 ,3,0,8.,4.8,336.,4.8,0.,4.8,0.,4.8
1979-07-19 12:02:54.950 ,3,0,10.,4.8,344.,4.8,0.,4.8,0.,4.8
1979-07-19 12:02:59.750 ,3,0,9.,4.8,320.,4.8,0.,4.8,0.,4.8
1979-07-19 12:03:04.550 ,3,0,5.,4.8,336.,4.8,0.,4.8,0.,4.8
1979-07-19 12:03:09.350 ,3,0,13.,4.8,352.,4.8,0.,4.8,0.,4.8
1979-07-19 12:03:14.150 ,4,0,7.,4.8,344.,4.8,0.,4.8,0.,4.8
1979-07-19 12:03:18.950 ,4,0,11.,4.8,352.,4.8,0.,4.8,0.,4.8
1979-07-19 12:03:23.750 ,4,0,7.,4.8,376.,4.8,0.,4.8,0.,4.8
1979-07-19 12:03:28.550 ,4,0,15.,4.8,352.,4.8,0.,4.8,0.,4.8
1979-07-19 12:03:33.350 ,4,0,13.,4.8,320.,4.8,0.,4.8,0.,4.8
1979-07-19 12:03:38.150 ,4,0,7.,4.8,360.,4.8,0.,4.8,0.,4.8
1979-07-19 12:03:42.950 ,4,0,19.,4.8,320.,4.8,0.,4.8,0.,4.8
1979-07-19 12:03:47.750 ,4,0,9.,4.8,344.,4.8,0.,4.8,0.,4.8
1979-07-19 12:03:52.550 ,4,0,9.,4.8,328.,4.8,0.,4.8,0.,4.8
1979-07-19 12:03:57.350 ,4,0,16.,4.8,320.,4.8,0.,4.8,0.,4.8
1979-07-19 12:04:02.150 ,5,0,11.,4.8,304.,4.8,0.,4.8,0.,4.8
1979-07-19 12:04:06.950 ,5,0,15.,4.8,360.,4.8,0.,4.8,0.,4.8
1979-07-19 12:04:11.750 ,5,0,9.,4.8,344.,4.8,0.,4.8,0.,4.8
1979-07-19 12:04:16.550 ,5,0,15.,4.8,336.,4.8,0.,4.8,0.,4.8
1979-07-19 12:04:21.350 ,5,0,5.,4.8,304.,4.8,0.,4.8,0.,4.8
1979-07-19 12:04:26.150 ,5,0,10.,4.8,344.,4.8,0.,4.8,0.,4.8
1979-07-19 12:04:30.950 ,5,0,16.,4.8,320.,4.8,0.,4.8,0.,4.8
1979-07-19 12:04:35.750 ,5,0,11.,4.8,352.,4.8,0.,4.8,0.,4.8
1979-07-19 12:04:40.550 ,5,0,12.,4.8,352.,4.8,0.,4.8,0.,4.8
1979-07-19 12:04:45.350 ,5,0,12.,4.8,336.,4.8,0.,4.8,0.,4.8
1979-07-19 12:04:50.150 ,6,0,6.,4.8,328.,4.8,0.,4.8,0.,4.8
1979-07-19 12:04:54.950 ,6,0,12.,4.8,352.,4.8,0.,4.8,0.,4.8
1979-07-19 12:04:59.750 ,6,0,8.,4.8,304.,4.8,0.,4.8,0.,4.8
1979-07-19 12:05:04.550 ,6,0,15.,4.8,328.,4.8,0.,4.8,0.,4.8
1979-07-19 12:05:09.350 ,6,0,11.,4.8,328.,4.8,0.,4.8,0.,4.8
1979-07-19 12:05:14.150 ,6,0,14.,4.8,320.,4.8,0.,4.8,0.,4.8
1979-07-19 12:05:18.950 ,6,0,16.,4.8,344.,4.8,0.,4.8,0.,4.8
1979-07-19 12:05:23.750 ,6,0,12.,4.8,312.,4.8,0.,4.8,0.,4.8
1979-07-19 12:05:28.550 ,6,0,10.,4.8,304.,4.8,0.,4.8,0.,4.8
1979-07-19 12:05:33.350 ,6,0,14.,4.8,312.,4.8,0.,4.8,0.,4.8
1979-07-19 12:05:38.150 ,7,0,16.,4.8,320.,4.8,0.,4.8,0.,4.8
1979-07-19 12:05:42.950 ,7,0,14.,4.8,368.,4.8,0.,4.8,0.,4.8
1979-07-19 12:05:47.750 ,7,0,11.,4.8,344.,4.8,0.,4.8,0.,4.8
1979-07-19 12:05:52.550 ,7,0,12.,4.8,336.,4.8,0.,4.8,0.,4.8
1979-07-19 12:05:57.350 ,7,0,6.,4.8,328.,4.8,0.,4.8,0.,4.8
1979-07-19 12:06:02.150 ,7,0,13.,4.8,344.,4.8,0.,4.8,0.,4.8
1979-07-19 12:06:06.950 ,7,0,15.,4.8,376.,4.8,0.,4.8,0.,4.8
1979-07-19 12:06:11.750 ,7,0,15.,4.8,336.,4.8,0.,4.8,0.,4.8
1979-07-19 12:06:16.550 ,7,0,10.,4.8,336.,4.8,0.,4.8,0.,4.8
1979-07-19 12:06:21.350 ,7,0,17.,4.8,336.,4.8,0.,4.8,0.,4.8
1979-07-19 12:06:26.150 ,7,0,8.,4.8,312.,4.8,0.,4.8,0.,4.8
1979-07-19 12:06:30.950 ,7,0,11.,4.8,328.,4.8,0.,4.8,0.,4.8
1979-07-19 12:06:35.750 ,7,0,10.,4.8,336.,4.8,0.,4.8,0.,4.8
1979-07-19 12:06:40.550 ,7,0,12.,4.8,376.,4.8,0.,4.8,0.,4.8
1979-07-19 12:06:45.350 ,7,0,8.,4.8,336.,4.8,0.,4.8,0.,4.8
1979-07-19 12:06:50.150 ,7,0,14.,4.8,304.,4.8,0.,4.8,0.,4.8
1979-07-19 12:06:54.950 ,7,0,12.,4.8,336.,4.8,0.,4.8,0.,4.8
1979-07-19 12:06:59.750 ,7,0,9.,4.8,352.,4.8,0.,4.8,0.,4.8
1979-07-19 12:07:04.550 ,7,0,12.,4.8,328.,4.8,0.,4.8,0.,4.8
1979-07-19 12:07:09.350 ,7,0,14.,4.8,304.,4.8,0.,4.8,0.,4.8
1979-07-19 12:07:14.150 ,6,0,16.,4.8,352.,4.8,0.,4.8,0.,4.8
1979-07-19 12:07:18.950 ,6,0,16.,4.8,344.,4.8,0.,4.8,0.,4.8
1979-07-19 12:07:23.750 ,6,0,11.,4.8,336.,4.8,0.,4.8,0.,4.8
1979-07-19 12:07:28.550 ,6,0,14.,4.8,304.,4.8,0.,4.8,0.,4.8
1979-07-19 12:07:33.350 ,6,0,8.,4.8,304.,4.8,0.,4.8,0.,4.8
1979-07-19 12:07:38.150 ,6,0,17.,4.8,312.,4.8,0.,4.8,0.,4.8
1979-07-19 12:07:42.950 ,6,0,10.,4.8,320.,4.8,0.,4.8,0.,4.8
1979-07-19 12:07:47.750 ,6,0,13.,4.8,304.,4.8,0.,4.8,0.,4.8
1979-07-19 12:07:52.550 ,6,0,11.,4.8,328.,4.8,0.,4.8,0.,4.8
1979-07-19 12:07:57.350 ,6,0,12.,4.8,328.,4.8,0.,4.8,0.,4.8
1979-07-19 12:08:02.150 ,5,0,11.,4.8,312.,4.8,0.,4.8,0.,4.8
1979-07-19 12:08:06.950 ,5,0,16.,4.8,352.,4.8,0.,4.8,0.,4.8
1979-07-19 12:08:11.750 ,5,0,15.,4.8,360.,4.8,0.,4.8,0.,4.8
1979-07-19 12:08:16.550 ,5,0,9.,4.8,336.,4.8,0.,4.8,0.,4.8
1979-07-19 12:08:21.350 ,5,0,17.,4.8,352.,4.8,0.,4.8,0.,4.8
1979-07-19 12:08:26.150 ,5,0,12.,4.8,336.,4.8,0.,4.8,0.,4.8
1979-07-19 12:08:30.950 ,5,0,11.,4.8,328.,4.8,0.,4.8,0.,4.8
1979-07-19 12:08:35.750 ,5,0,12.,4.8,336.,4.8,0.,4.8,0.,4.8
1979-07-19 12:08:40.550 ,5,0,13.,4.8,336.,4.8,0.,4.8,0.,4.8
1979-07-19 12:08:45.350 ,5,0,9.,4.8,320.,4.8,0.,4.8,0.,4.8
1979-07-19 12:08:50.150 ,4,0,16.,4.8,312.,4.8,0.,4.8,0.,4.8
1979-07-19 12:08:54.950 ,4,0,14.,4.8,368.,4.8,0.,4.8,0.,4.8
1979-07-19 12:08:59.750 ,4,0,21.,4.8,352.,4.8,0.,4.8,0.,4.8
1979-07-19 12:09:04.550 ,4,0,12.,4.8,408.,4.8,0.,4.8,0.,4.8
1979-07-19 12:09:09.350 ,4,0,16.,4.8,408.,4.8,1.,4.8,0.,4.8
1979-07-19 12:09:14.150 ,4,0,14.,4.8,376.,4.8,0.,4.8,0.,4.8
1979-07-19 12:09:18.950 ,4,0,16.,4.8,368.,4.8,0.,4.8,0.,4.8
1979-07-19 12:09:23.750 ,4,0,19.,4.8,336.,4.8,0.,4.8,0.,4.8
1979-07-19 12:09:28.550 ,4,0,15.,4.8,368.,4.8,0.,4.8,0.,4.8
1979-07-19 12:09:33.350 ,4,0,13.,4.8,352.,4.8,0.,4.8,0.,4.8
1979-07-19 12:09:38.150 ,3,0,14.,4.8,376.,4.8,0.,4.8,0.,4.8
1979-07-19 12:09:42.950 ,3,0,17.,4.8,368.,4.8,0.,4.8,0.,4.8
1979-07-19 12:09:47.750 ,3,0,13.,4.8,376.,4.8,0.,4.8,0.,4.8
1979-07-19 12:09:52.550 ,3,0,15.,4.8,344.,4.8,0.,4.8,0.,4.8
1979-07-19 12:09:57.350 ,3,0,6.,4.8,320.,4.8,0.,4.8,0.,4.8
1979-07-19 12:10:02.150 ,3,0,5.,4.8,352.,4.8,0.,4.8,0.,4.8
1979-07-19 12:10:06.950 ,3,0,4.,4.8,360.,4.8,0.,4.8,0.,4.8
1979-07-19 12:10:11.750 ,3,0,7.,4.8,408.,4.8,0.,4.8,0.,4.8
1979-07-19 12:10:16.550 ,3,0,10.,4.8,344.,4.8,0.,4.8,0.,4.8
1979-07-19 12:10:21.350 ,3,0,8.,4.8,344.,4.8,0.,4.8,0.,4.8
1979-07-19 12:10:26.150 ,2,0,12.,4.8,360.,4.8,0.,4.8,0.,4.8
1979-07-19 12:10:30.950 ,2,0,15.,4.8,360.,4.8,0.,4.8,0.,4.8
1979-07-19 12:10:35.750 ,2,0,14.,4.8,312.,4.8,0.,4.8,0.,4.8
1979-07-19 12:10:40.550 ,2,0,16.,4.8,336.,4.8,0.,4.8,0.,4.8
1979-07-19 12:10:45.350 ,2,0,9.,4.8,352.,4.8,0.,4.8,0.,4.8
1979-07-19 12:10:50.150 ,2,0,10.,4.8,376.,4.8,0.,4.8,0.,4.8
1979-07-19 12:10:54.950 ,2,0,14.,4.8,312.,4.8,0.,4.8,0.,4.8
1979-07-19 12:10:59.750 ,2,0,7.,4.8,344.,4.8,0.,4.8,0.,4.8
1979-07-19 12:11:04.550 ,2,0,12.,4.8,328.,4.8,0.,4.8,0.,4.8
1979-07-19 12:11:09.350 ,2,0,11.,4.8,352.,4.8,0.,4.8,0.,4.8
1979-07-19 12:11:14.150 ,1,0,10.,4.8,336.,4.8,0.,4.8,0.,4.8
1979-07-19 12:11:18.950 ,1,0,12.,4.8,368.,4.8,0.,4.8,0.,4.8
1979-07-19 12:11:23.750 ,1,0,16.,4.8,328.,4.8,0.,4.8,0.,4.8
1979-07-19 12:11:28.550 ,1,0,17.,4.8,360.,4.8,0.,4.8,0.,4.8
1979-07-19 12:11:33.350 ,1,0,13.,4.8,368.,4.8,0.,4.8,0.,4.8
1979-07-19 12:11:38.150 ,0,0,20.,4.8,352.,4.8,0.,4.8,0.,4.8
1979-07-19 12:11:42.950 ,0,0,16.,4.8,320.,4.8,0.,4.8,0.,4.8
1979-07-19 12:11:47.750 ,0,0,14.,4.8,392.,4.8,0.,4.8,0.,4.8
1979-07-19 12:11:52.550 ,0,0,16.,4.8,336.,4.8,0.,4.8,0.,4.8
1979-07-19 12:11:57.350 ,0,0,15.,4.8,344.,4.8,0.,4.8,0.,4.8
1979-07-19 12:12:02.150 ,0,0,11.,4.8,336.,4.8,0.,4.8,0.,4.8
1979-07-19 12:12:06.950 ,0,0,11.,4.8,312.,4.8,0.,4.8,0.,4.8
1979-07-19 12:12:11.750 ,0,0,12.,4.8,368.,4.8,0.,4.8,0.,4.8
1979-07-19 12:12:16.550 ,0,0,15.,4.8,360.,4.8,0.,4.8,0.,4.8
1979-07-19 12:12:21.350 ,0,0,12.,4.8,344.,4.8,0.,4.8,0.,4.8
1979-07-19 12:12:26.150 ,0,0,9.,4.8,352.,4.8,0.,4.8,0.,4.8
1979-07-19 12:12:30.950 ,0,0,14.,4.8,344.,4.8,0.,4.8,0.,4.8
1979-07-19 12:12:35.750 ,0,0,12.,4.8,320.,4.8,0.,4.8,0.,4.8
1979-07-19 12:12:40.550 ,0,0,11.,4.8,344.,4.8,0.,4.8,0.,4.8
1979-07-19 12:12:45.350 ,0,0,14.,4.8,384.,4.8,0.,4.8,0.,4.8
1979-07-19 12:12:50.150 ,0,0,20.,4.8,384.,4.8,0.,4.8,0.,4.8
1979-07-19 12:12:54.950 ,0,0,8.,4.8,376.,4.8,0.,4.8,0.,4.8
1979-07-19 12:12:59.750 ,0,0,,0,,0,,0,,0
1979-07-19 12:13:04.550 ,0,0,15.,4.8,336.,4.8,0.,4.8,0.,4.8
1979-07-19 12:13:09.350 ,0,0,11.,4.8,352.,4.8,0.,4.8,0.,4.8
1979-07-19 12:13:14.150 ,0,0,16.,4.8,368.,4.8,0.,4.8,0.,4.8
1979-07-19 12:13:18.950 ,0,0,11.,4.8,328.,4.8,0.,4.8,0.,4.8
1979-07-19 12:13:23.750 ,0,0,7.,4.8,344.,4.8,0.,4.8,0.,4.8
1979-07-19 12:13:28.550 ,0,0,17.,4.8,344.,4.8,0.,4.8,0.,4.8
1979-07-19 12:13:33.350 ,0,0,10.,4.8,368.,4.8,0.,4.8,0.,4.8
1979-07-19 12:13:38.150 ,1,0,15.,4.8,320.,4.8,0.,4.8,0.,4.8
1979-07-19 12:13:42.950 ,1,0,12.,4.8,368.,4.8,0.,4.8,0.,4.8
1979-07-19 12:13:47.750 ,1,0,10.,4.8,328.,4.8,0.,4.8,0.,4.8
1979-07-19 12:13:52.550 ,1,0,16.,4.8,368.,4.8,0.,4.8,0.,4.8
1979-07-19 12:13:57.350 ,1,0,20.,4.8,344.,4.8,0.,4.8,0.,4.8
1979-07-19 12:14:02.150 ,1,0,14.,4.8,352.,4.8,0.,4.8,0.,4.8
1979-07-19 12:14:06.950 ,1,0,13.,4.8,328.,4.8,0.,4.8,0.,4.8
1979-07-19 12:14:11.750 ,1,0,9.,4.8,344.,4.8,0.,4.8,0.,4.8
1979-07-19 12:14:16.550 ,1,0,12.,4.8,328.,4.8,0.,4.8,0.,4.8
1979-07-19 12:14:21.350 ,1,0,,0,,0,,0,,0
1979-07-19 12:14:26.150 ,0,0,12.,4.8,360.,4.8,0.,4.8,0.,4.8
1979-07-19 12:14:30.950 ,0,0,11.,4.8,352.,4.8,0.,4.8,0.,4.8
1979-07-19 12:14:35.750 ,0,0,,0,,0,,0,,0
1979-07-19 12:14:40.550 ,0,0,,0,,0,,0,,0
1979-07-19 12:14:45.350 ,0,0,,0,,0,,0,,0
1979-07-19 12:14:50.150 ,0,0,,0,,0,,0,,0
1979-07-19 12:14:54.950 ,0,0,,0,,0,,0,,0
1979-07-19 12:14:59.750 ,0,0,,0,,0,,0,,0
1979-07-19 12:15:04.550 ,0,0,,0,,0,,0,,0
1979-07-19 12:15:09.350 ,0,0,,0,,0,,0,,0
1979-07-19 12:15:28.550 ,0,0,,0,,0,,0,,0
1979-07-19 12:15:33.350 ,0,0,,0,,0,,0,,0
1979-07-19 12:15:38.150 ,0,0,,0,,0,,0,,0
1979-07-19 12:15:42.950 ,0,0,,0,,0,,0,,0
1979-07-19 12:15:47.750 ,0,0,,0,,0,,0,,0
1979-07-19 12:15:38.150 ,0,0,,0,,0,,0,,0
1979-07-19 12:15:42.950 ,0,0,,0,,0,,0,,0
1979-07-19 12:15:47.750 ,0,0,,0,,0,,0,,0
1979-07-19 12:15:52.550 ,0,0,,0,,0,,0,,0
1979-07-19 12:15:57.350 ,0,0,,0,,0,,0,,0
1979-07-19 12:18:24.950 ,0,0,,0,,0,,0,,0
1979-07-19 12:18:29.750 ,0,0,,0,,0,,0,,0
1979-07-19 12:18:34.550 ,0,0,,0,,0,,0,,0
1979-07-19 12:18:39.350 ,0,0,,0,,0,,0,,0
1979-07-19 12:18:44.150 ,0,0,5.,4.8,368.,4.8,0.,4.8,0.,4.8
1979-07-19 12:18:26.150 ,7,0,16.,4.8,344.,4.8,0.,4.8,0.,4.8
1979-07-19 12:18:30.950 ,7,0,7.,4.8,336.,4.8,0.,4.8,0.,4.8
1979-07-19 12:18:35.750 ,7,0,11.,4.8,328.,4.8,0.,4.8,0.,4.8
1979-07-19 12:18:40.550 ,7,0,11.,4.8,344.,4.8,0.,4.8,0.,4.8
1979-07-19 12:18:45.350 ,7,0,8.,4.8,360.,4.8,0.,4.8,0.,4.8
1979-07-19 12:18:50.150 ,7,0,11.,4.8,336.,4.8,0.,4.8,0.,4.8
1979-07-19 12:18:54.950 ,7,0,5.,4.8,320.,4.8,0.,4.8,0.,4.8
1979-07-19 12:18:59.750 ,7,0,4.,4.8,368.,4.8,0.,4.8,0.,4.8
1979-07-19 12:19:04.550 ,7,0,12.,4.8,296.,4.8,0.,4.8,0.,4.8
1979-07-19 12:19:09.350 ,7,0,7.,4.8,312.,4.8,0.,4.8,0.,4.8
1979-07-19 12:19:14.150 ,3,1,10.,4.8,320.,4.8,0.,4.8,0.,4.8
1979-07-19 12:19:18.950 ,3,1,17.,4.8,328.,4.8,0.,4.8,0.,4.8
1979-07-19 12:19:23.750 ,3,1,13.,4.8,320.,4.8,0.,4.8,0.,4.8
1979-07-19 12:19:28.550 ,3,1,16.,4.8,312.,4.8,0.,4.8,0.,4.8
1979-07-19 12:19:33.350 ,3,1,5.,4.8,328.,4.8,0.,4.8,0.,4.8
1979-07-19 12:19:38.150 ,0,1,10.,4.8,304.,4.8,0.,4.8,0.,4.8
1979-07-19 12:19:42.950 ,0,1,12.,4.8,320.,4.8,0.,4.8,0.,4.8
1979-07-19 12:19:47.750 ,0,1,10.,4.8,304.,4.8,0.,4.8,0.,4.8
1979-07-19 12:19:52.550 ,0,1,13.,4.8,344.,4.8,0.,4.8,0.,4.8
1979-07-19 12:19:57.350 ,0,1,9.,4.8,360.,4.8,0.,4.8,0.,4.8
1979-07-19 12:20:02.150 ,4,1,11.,4.8,352.,4.8,0.,4.8,0.,4.8
1979-07-19 12:20:06.950 ,4,1,12.,4.8,312.,4.8,0.,4.8,0.,4.8
1979-07-19 12:20:11.750 ,4,1,13.,4.8,320.,4.8,0.,4.8,0.,4.8
1979-07-19 12:20:16.550 ,4,1,6.,4.8,352.,4.8,0.,4.8,0.,4.8
1979-07-19 12:20:21.350 ,4,1,11.,4.8,344.,4.8,0.,4.8,0.,4.8
1979-07-19 12:20:26.150 ,7,1,14.,4.8,344.,4.8,0.,4.8,0.,4.8
1979-07-19 12:20:30.950 ,7,1,9.,4.8,336.,4.8,0.,4.8,0.,4.8
1979-07-19 12:20:35.750 ,7,1,10.,4.8,328.,4.8,0.,4.8,0.,4.8
1979-07-19 12:20:40.550 ,7,1,10.,4.8,320.,4.8,0.,4.8,0.,4.8
1979-07-19 12:20:45.350 ,7,1,15.,4.8,320.,4.8,0.,4.8,0.,4.8
1979-07-19 12:20:50.150 ,3,1,8.,4.8,352.,4.8,0.,4.8,0.,4.8
1979-07-19 12:20:54.950 ,3,1,15.,4.8,336.,4.8,0.,4.8,0.,4.8
1979-07-19 12:20:59.750 ,3,1,9.,4.8,320.,4.8,0.,4.8,0.,4.8
1979-07-19 12:21:04.550 ,3,1,14.,4.8,368.,4.8,0.,4.8,0.,4.8
1979-07-19 12:21:09.350 ,3,1,9.,4.8,320.,4.8,0.,4.8,0.,4.8
1979-07-19 12:21:14.150 ,0,1,9.,4.8,304.,4.8,0.,4.8,0.,4.8
1979-07-19 12:21:18.950 ,0,1,12.,4.8,312.,4.8,0.,4.8,0.,4.8
1979-07-19 12:21:23.750 ,0,1,13.,4.8,320.,4.8,0.,4.8,0.,4.8
1979-07-19 12:21:28.550 ,0,1,16.,4.8,360.,4.8,0.,4.8,0.,4.8
1979-07-19 12:21:33.350 ,0,1,12.,4.8,376.,4.8,0.,4.8,0.,4.8
1979-07-19 12:21:38.150 ,4,1,13.,4.8,336.,4.8,0.,4.8,0.,4.8
1979-07-19 12:21:42.950 ,4,1,10.,4.8,352.,4.8,0.,4.8,0.,4.8
1979-07-19 12:21:47.750 ,4,1,12.,4.8,328.,4.8,0.,4.8,0.,4.8
1979-07-19 12:21:52.550 ,4,1,6.,4.8,336.,4.8,0.,4.8,0.,4.8
1979-07-19 12:21:57.350 ,4,1,7.,4.8,352.,4.8,0.,4.8,0.,4.8
1979-07-19 12:22:02.150 ,7,1,8.,4.8,336.,4.8,0.,4.8,0.,4.8
1979-07-19 12:22:06.950 ,7,1,13.,4.8,352.,4.8,0.,4.8,0.,4.8
1979-07-19 12:22:11.750 ,7,1,16.,4.8,352.,4.8,0.,4.8,0.,4.8
1979-07-19 12:22:16.550 ,7,1,10.,4.8,296.,4.8,0.,4.8,0.,4.8
1979-07-19 12:22:21.350 ,7,1,17.,4.8,368.,4.8,0.,4.8,0.,4.8
1979-07-19 12:22:26.150 ,3,1,10.,4.8,336.,4.8,0.,4.8,0.,4.8
1979-07-19 12:22:30.950 ,3,1,15.,4.8,328.,4.8,0.,4.8,0.,4.8
1979-07-19 12:22:35.750 ,3,1,10.,4.8,320.,4.8,0.,4.8,0.,4.8
1979-07-19 12:22:40.550 ,3,1,12.,4.8,360.,4.8,0.,4.8,0.,4.8
1979-07-19 12:22:45.350 ,3,1,8.,4.8,328.,4.8,0.,4.8,0.,4.8
1979-07-19 12:22:50.150 ,0,1,18.,4.8,288.,4.8,0.,4.8,0.,4.8
1979-07-19 12:22:54.950 ,0,1,10.,4.8,368.,4.8,0.,4.8,0.,4.8
1979-07-19 12:22:59.750 ,0,1,16.,4.8,328.,4.8,0.,4.8,0.,4.8
1979-07-19 12:23:04.550 ,0,1,14.,4.8,288.,4.8,0.,4.8,0.,4.8
1979-07-19 12:23:09.350 ,0,1,9.,4.8,328.,4.8,0.,4.8,0.,4.8
1979-07-19 12:23:14.150 ,4,1,14.,4.8,312.,4.8,0.,4.8,0.,4.8
1979-07-19 12:23:18.950 ,4,1,10.,4.8,344.,4.8,0.,4.8,0.,4.8
1979-07-19 12:23:23.750 ,4,1,6.,4.8,280.,4.8,0.,4.8,0.,4.8
1979-07-19 12:23:28.550 ,4,1,10.,4.8,328.,4.8,0.,4.8,0.,4.8
1979-07-19 12:23:33.350 ,4,1,10.,4.8,320.,4.8,0.,4.8,0.,4.8
1979-07-19 12:23:38.150 ,7,1,20.,4.8,352.,4.8,0.,4.8,0.,4.8
1979-07-19 12:23:42.950 ,7,1,19.,4.8,312.,4.8,0.,4.8,0.,4.8
1979-07-19 12:23:47.750 ,7,1,13.,4.8,312.,4.8,0.,4.8,0.,4.8
1979-07-19 12:23:52.550 ,7,1,4.,4.8,296.,4.8,0.,4.8,0.,4.8
1979-07-19 12:23:57.350 ,7,1,12.,4.8,304.,4.8,0.,4.8,0.,4.8
1979-07-19 12:24:02.150 ,3,1,11.,4.8,320.,4.8,0.,4.8,0.,4.8
1979-07-19 12:24:06.950 ,3,1,17.,4.8,344.,4.8,0.,4.8,0.,4.8
1979-07-19 12:24:11.750 ,3,1,17.,4.8,272.,4.8,0.,4.8,0.,4.8
1979-07-19 12:24:16.550 ,3,1,6.,4.8,352.,4.8,0.,4.8,0.,4.8
1979-07-19 12:24:21.350 ,3,1,5.,4.8,320.,4.8,0.,4.8,0.,4.8
1979-07-19 12:24:26.150 ,0,1,11.,4.8,272.,4.8,0.,4.8,0.,4.8
1979-07-19 12:24:30.950 ,0,1,4.,4.8,304.,4.8,0.,4.8,0.,4.8
1979-07-19 12:24:35.750 ,0,1,10.,4.8,312.,4.8,0.,4.8,0.,4.8
1979-07-19 12:24:40.550 ,0,1,11.,4.8,304.,4.8,0.,4.8,0.,4.8
1979-07-19 12:24:45.350 ,0,1,6.,4.8,304.,4.8,1.,4.8,0.,4.8
1979-07-19 12:24:50.150 ,4,1,14.,4.8,288.,4.8,0.,4.8,0.,4.8
1979-07-19 12:24:54.950 ,4,1,16.,4.8,304.,4.8,0.,4.8,0.,4.8
1979-07-19 12:24:59.750 ,4,1,8.,4.8,304.,4.8,0.,4.8,0.,4.8
1979-07-19 12:25:04.550 ,4,1,3.,4.8,304.,4.8,0.,4.8,0.,4.8
1979-07-19 12:25:09.350 ,4,1,8.,4.8,328.,4.8,0.,4.8,0.,4.8
1979-07-19 12:25:14.150 ,7,1,6.,4.8,296.,4.8,0.,4.8,0.,4.8
1979-07-19 12:25:18.950 ,7,1,13.,4.8,304.,4.8,0.,4.8,0.,4.8
1979-07-19 12:25:23.750 ,7,1,12.,4.8,296.,4.8,0.,4.8,0.,4.8
1979-07-19 12:25:28.550 ,7,1,13.,4.8,288.,4.8,0.,4.8,0.,4.8
1979-07-19 12:25:33.350 ,7,1,7.,4.8,272.,4.8,0.,4.8,0.,4.8
1979-07-19 12:25:38.150 ,3,1,10.,4.8,312.,4.8,0.,4.8,0.,4.8
1979-07-19 12:25:42.950 ,3,1,5.,4.8,352.,4.8,0.,4.8,0.,4.8
1979-07-19 12:25:47.750 ,3,1,14.,4.8,336.,4.8,0.,4.8,0.,4.8
1979-07-19 12:25:52.550 ,3,1,8.,4.8,304.,4.8,0.,4.8,0.,4.8
1979-07-19 12:25:57.350 ,3,1,9.,4.8,320.,4.8,0.,4.8,0.,4.8
1979-07-19 12:26:02.150 ,0,1,8.,4.8,296.,4.8,0.,4.8,0.,4.8
1979-07-19 12:26:06.950 ,0,1,9.,4.8,344.,4.8,0.,4.8,0.,4.8
1979-07-19 12:26:11.750 ,0,1,5.,4.8,312.,4.8,0.,4.8,0.,4.8
1979-07-19 12:26:16.550 ,0,1,9.,4.8,304.,4.8,0.,4.8,0.,4.8
1979-07-19 12:26:21.350 ,0,1,11.,4.8,296.,4.8,0.,4.8,0.,4.8
1979-07-19 12:26:26.150 ,4,1,8.,4.8,288.,4.8,0.,4.8,0.,4.8
1979-07-19 12:26:30.950 ,4,1,10.,4.8,296.,4.8,0.,4.8,0.,4.8
1979-07-19 12:26:35.750 ,4,1,5.,4.8,320.,4.8,0.,4.8,0.,4.8
1979-07-19 12:26:40.550 ,4,1,9.,4.8,312.,4.8,0.,4.8,0.,4.8
1979-07-19 12:26:45.350 ,4,1,10.,4.8,336.,4.8,0.,4.8,0.,4.8
1979-07-19 12:26:50.150 ,7,1,17.,4.8,328.,4.8,0.,4.8,0.,4.8
1979-07-19 12:26:54.950 ,7,1,5.,4.8,336.,4.8,0.,4.8,0.,4.8
1979-07-19 12:26:59.750 ,7,1,6.,4.8,304.,4.8,0.,4.8,0.,4.8
1979-07-19 12:27:04.550 ,7,1,9.,4.8,304.,4.8,0.,4.8,0.,4.8
1979-07-19 12:27:09.350 ,7,1,13.,4.8,264.,4.8,0.,4.8,0.,4.8
1979-07-19 12:27:14.150 ,3,1,7.,4.8,304.,4.8,0.,4.8,0.,4.8
1979-07-19 12:27:18.950 ,3,1,13.,4.8,280.,4.8,0.,4.8,0.,4.8
1979-07-19 12:27:23.750 ,3,1,4.,4.8,296.,4.8,0.,4.8,0.,4.8
1979-07-19 12:27:28.550 ,3,1,12.,4.8,312.,4.8,0.,4.8,0.,4.8
1979-07-19 12:27:33.350 ,3,1,5.,4.8,288.,4.8,0.,4.8,0.,4.8
1979-07-19 12:27:38.150 ,0,1,10.,4.8,336.,4.8,0.,4.8,0.,4.8
1979-07-19 12:27:42.950 ,0,1,9.,4.8,312.,4.8,0.,4.8,0.,4.8
1979-07-19 12:27:47.750 ,0,1,7.,4.8,312.,4.8,0.,4.8,0.,4.8
1979-07-19 12:27:52.550 ,0,1,9.,4.8,296.,4.8,0.,4.8,0.,4.8
1979-07-19 12:27:57.350 ,0,1,14.,4.8,312.,4.8,0.,4.8,0.,4.8
1979-07-19 12:28:02.150 ,4,1,5.,4.8,312.,4.8,0.,4.8,0.,4.8
1979-07-19 12:28:06.950 ,4,1,19.,4.8,360.,4.8,0.,4.8,0.,4.8
1979-07-19 12:28:11.750 ,4,1,11.,4.8,320.,4.8,0.,4.8,0.,4.8
1979-07-19 12:28:16.550 ,4,1,6.,4.8,336.,4.8,0.,4.8,0.,4.8
1979-07-19 12:28:21.350 ,4,1,18.,4.8,312.,4.8,0.,4.8,0.,4.8
1979-07-19 12:28:26.150 ,7,1,13.,4.8,336.,4.8,0.,4.8,0.,4.8
1979-07-19 12:28:30.950 ,7,1,10.,4.8,352.,4.8,0.,4.8,0.,4.8
1979-07-19 12:28:35.750 ,7,1,9.,4.8,336.,4.8,0.,4.8,0.,4.8
1979-07-19 12:28:40.550 ,7,1,6.,4.8,344.,4.8,0.,4.8,0.,4.8
1979-07-19 12:28:45.350 ,7,1,7.,4.8,304.,4.8,0.,4.8,0.,4.8
1979-07-19 12:28:50.150 ,3,1,7.,4.8,304.,4.8,0.,4.8,0.,4.8
1979-07-19 12:28:54.950 ,3,1,14.,4.8,328.,4.8,0.,4.8,0.,4.8
1979-07-19 12:28:59.750 ,3,1,11.,4.8,344.,4.8,0.,4.8,0.,4.8
1979-07-19 12:29:04.550 ,3,1,13.,4.8,352.,4.8,0.,4.8,0.,4.8
1979-07-19 12:29:09.350 ,3,1,7.,4.8,320.,4.8,0.,4.8,0.,4.8
1979-07-19 12:29:14.150 ,0,1,6.,4.8,304.,4.8,0.,4.8,0.,4.8
1979-07-19 12:29:18.950 ,0,1,16.,4.8,312.,4.8,0.,4.8,0.,4.8
1979-07-19 12:29:23.750 ,0,1,9.,4.8,304.,4.8,0.,4.8,0.,4.8
1979-07-19 12:29:28.550 ,0,1,5.,4.8,336.,4.8,0.,4.8,0.,4.8
1979-07-19 12:29:33.350 ,0,1,8.,4.8,312.,4.8,0.,4.8,0.,4.8
1979-07-19 12:29:38.150 ,0,0,18.,4.8,288.,4.8,0.,4.8,0.,4.8
1979-07-19 12:29:42.950 ,0,0,16.,4.8,288.,4.8,0.,4.8,0.,4.8
1979-07-19 12:29:47.750 ,0,0,6.,4.8,304.,4.8,0.,4.8,0.,4.8
1979-07-19 12:29:52.550 ,0,0,7.,4.8,320.,4.8,0.,4.8,0.,4.8
1979-07-19 12:29:57.350 ,0,0,14.,4.8,312.,4.8,0.,4.8,0.,4.8
1979-07-19 12:30:02.150 ,0,0,15.,4.8,352.,4.8,0.,4.8,0.,4.8
1979-07-19 12:30:06.950 ,0,0,17.,4.8,304.,4.8,0.,4.8,0.,4.8
1979-07-19 12:30:11.750 ,0,0,10.,4.8,320.,4.8,0.,4.8,0.,4.8
1979-07-19 12:30:16.550 ,0,0,8.,4.8,304.,4.8,0.,4.8,0.,4.8
1979-07-19 12:30:21.350 ,0,0,10.,4.8,360.,4.8,0.,4.8,0.,4.8
1979-07-19 12:30:26.150 ,5,0,9.,4.8,312.,4.8,0.,4.8,0.,4.8
1979-07-19 12:30:30.950 ,5,0,13.,4.8,312.,4.8,0.,4.8,0.,4.8
1979-07-19 12:30:35.750 ,5,0,13.,4.8,312.,4.8,0.,4.8,0.,4.8
1979-07-19 12:30:40.550 ,5,0,8.,4.8,320.,4.8,0.,4.8,0.,4.8
1979-07-19 12:30:45.350 ,5,0,13.,4.8,368.,4.8,0.,4.8,0.,4.8
1979-07-19 12:30:50.150 ,5,0,18.,4.8,320.,4.8,0.,4.8,0.,4.8
1979-07-19 12:30:54.950 ,5,0,6.,4.8,328.,4.8,0.,4.8,0.,4.8
1979-07-19 12:30:59.750 ,5,0,10.,4.8,312.,4.8,0.,4.8,0.,4.8
1979-07-19 12:31:04.550 ,5,0,9.,4.8,336.,4.8,0.,4.8,0.,4.8
1979-07-19 12:31:09.350 ,5,0,9.,4.8,336.,4.8,0.,4.8,0.,4.8
1979-07-19 12:31:14.150 ,4,0,12.,4.8,344.,4.8,0.,4.8,0.,4.8
1979-07-19 12:31:18.950 ,4,0,13.,4.8,336.,4.8,0.,4.8,0.,4.8
1979-07-19 12:31:23.750 ,4,0,17.,4.8,312.,4.8,0.,4.8,0.,4.8
1979-07-19 12:31:28.550 ,4,0,16.,4.8,344.,4.8,0.,4.8,0.,4.8
1979-07-19 12:31:33.350 ,4,0,13.,4.8,312.,4.8,0.,4.8,0.,4.8
1979-07-19 12:31:38.150 ,4,0,11.,4.8,336.,4.8,0.,4.8,0.,4.8
1979-07-19 12:31:42.950 ,4,0,12.,4.8,304.,4.8,1.,4.8,0.,4.8
1979-07-19 12:31:47.750 ,4,0,12.,4.8,304.,4.8,0.,4.8,0.,4.8
1979-07-19 12:31:52.550 ,4,0,18.,4.8,320.,4.8,0.,4.8,0.,4.8
1979-07-19 12:31:57.350 ,4,0,11.,4.8,312.,4.8,0.,4.8,0.,4.8
1979-07-19 12:32:02.150 ,3,0,17.,4.8,328.,4.8,0.,4.8,0.,4.8
1979-07-19 12:32:06.950 ,3,0,7.,4.8,320.,4.8,0.,4.8,0.,4.8
1979-07-19 12:32:11.750 ,3,0,3.,4.8,304.,4.8,0.,4.8,0.,4.8
1979-07-19 12:32:16.550 ,3,0,8.,4.8,304.,4.8,0.,4.8,0.,4.8
1979-07-19 12:32:21.350 ,3,0,9.,4.8,344.,4.8,0.,4.8,0.,4.8
1979-07-19 12:32:26.150 ,3,0,6.,4.8,304.,4.8,0.,4.8,0.,4.8
1979-07-19 12:32:30.950 ,3,0,5.,4.8,320.,4.8,0.,4.8,0.,4.8
1979-07-19 12:32:35.750 ,3,0,5.,4.8,296.,4.8,0.,4.8,0.,4.8
1979-07-19 12:32:40.550 ,3,0,7.,4.8,288.,4.8,0.,4.8,0.,4.8
1979-07-19 12:32:45.350 ,3,0,8.,4.8,288.,4.8,0.,4.8,0.,4.8
1979-07-19 12:32:50.150 ,2,0,7.,4.8,264.,4.8,0.,4.8,0.,4.8
1979-07-19 12:32:54.950 ,2,0,9.,4.8,288.,4.8,0.,4.8,0.,4.8
1979-07-19 12:32:59.750 ,2,0,9.,4.8,288.,4.8,0.,4.8,0.,4.8
1979-07-19 12:33:04.550 ,2,0,5.,4.8,304.,4.8,0.,4.8,0.,4.8
1979-07-19 12:33:09.350 ,2,0,7.,4.8,272.,4.8,0.,4.8,0.,4.8
1979-07-19 12:33:14.150 ,2,0,8.,4.8,296.,4.8,0.,4.8,0.,4.8
1979-07-19 12:33:18.950 ,2,0,9.,4.8,264.,4.8,0.,4.8,0.,4.8
1979-07-19 12:33:23.750 ,2,0,8.,4.8,288.,4.8,0.,4.8,0.,4.8
1979-07-19 12:33:28.550 ,2,0,8.,4.8,252.,4.8,0.,4.8,0.,4.8
1979-07-19 12:33:33.350 ,2,0,4.,4.8,264.,4.8,0.,4.8,0.,4.8
1979-07-19 12:33:38.150 ,1,0,11.,4.8,272.,4.8,0.,4.8,0.,4.8
1979-07-19 12:33:42.950 ,1,0,11.,4.8,272.,4.8,0.,4.8,0.,4.8
1979-07-19 12:33:47.750 ,1,0,8.,4.8,272.,4.8,0.,4.8,0.,4.8
1979-07-19 12:33:52.550 ,1,0,2.,4.8,280.,4.8,0.,4.8,0.,4.8
1979-07-19 12:33:57.350 ,1,0,7.,4.8,264.,4.8,0.,4.8,0.,4.8
1979-07-19 12:34:02.150 ,1,0,6.,4.8,264.,4.8,0.,4.8,0.,4.8
1979-07-19 12:34:06.950 ,1,0,3.,4.8,280.,4.8,0.,4.8,0.,4.8
1979-07-19 12:34:11.750 ,1,0,6.,4.8,272.,4.8,0.,4.8,0.,4.8
1979-07-19 12:34:16.550 ,1,0,3.,4.8,296.,4.8,0.,4.8,0.,4.8
1979-07-19 12:34:21.350 ,1,0,9.,4.8,288.,4.8,0.,4.8,0.,4.8
1979-07-19 12:34:26.150 ,0,0,15.,4.8,272.,4.8,0.,4.8,0.,4.8